Regional Weather Roundup
Issued by NWS

Home | Current Version | Previous Version | Graphics & Text | Print | Product List | Glossary On
Versions: 1 2 3 4 5 6 7 8 9 10 11 12 13 14 15 16 17 18 19 20 21 22 23 24 25 26 27 28 29 30 31 32 33 34 35 36 37 38 39 40 41 42 43 44 45 46 47 48 49 50
000
ASUS43 KDMX 300007
RWRIA

WEATHER ROUNDUP FOR IOWA
NATIONAL WEATHER SERVICE DES MOINES IA
700 PM CDT FRI AUG 29 2014

NOTE: "FAIR" INDICATES FEW OR NO CLOUDS BELOW 12,000 FEET WITH NO
SIGNIFICANT WEATHER AND/OR OBSTRUCTIONS TO VISIBILITY.

* - THESE STATIONS ARE NOT NWS STATIONS...THUS NOT UNDER NWS
QUALITY CONTROL.  THEY ALSO DO NOT REPORT WEATHER SUCH
AS PRECIPITATION OR FOG.

IAZ001>003-012>014-020>022-031>034-043>046-300100-
   NORTHWEST IOWA

CITY           SKY/WX    TMP DP  RH WIND       PRES   REMARKS
CARROLL *      CLOUDY    72  70  94 S5        29.78S
CHEROKEE *     RAIN      69  69  99 CALM      29.77S
DENISON *      PTSUNNY   66  66 100 SW8       29.76S FOG
LE MARS *      CLOUDY    70  68  94 S3        29.77F
ORANGE CITY *  LGT RAIN  70  66  88 CALM      29.78F
SHELDON *      LGT RAIN  68  68 100 N5        29.78R
SIOUX CITY     CLOUDY    74  69  85 CALM      29.78R
6HR MIN TEMP:  73; 6HR MAX TEMP:  77; 6HR PCP: TRACE;

SPENCER        CLOUDY    70  67  90 W3        29.78F
6HR MIN TEMP:  68; 6HR MAX TEMP:  74; 6HR PCP:  0.16;

STORM LAKE *   LGT RAIN  70  70 100 CALM      29.78F
$$

IAZ055>058-069>071-079>083-090>094-300100-
   SOUTHWEST IOWA

CITY           SKY/WX    TMP DP  RH WIND       PRES   REMARKS
ATLANTIC *     LGT RAIN  66  64  94 W8G17     29.79R
AUDUBON *      RAIN      72  66  83 W7G20     29.81R
CLARINDA *     MOCLDY    75  70  83 CALM      29.80S
COUNCIL BLFS * MOSUNNY   70  70 100 S5        29.78S
CRESTON *      CLOUDY    73  70  88 S6        29.80F
HARLAN  *      LGT RAIN  66  66 100 S5        29.83R
LAMONI         CLEAR     73  68  84 S7        29.80F
6HR MIN TEMP:  72; 6HR MAX TEMP:  79; 6HR PCP:  0.14;

RED OAK *      CLOUDY    73  68  83 SW7       29.79F
SHENANDOAH *   PTSUNNY   73  70  88 CALM      29.78F
$$

IAZ047>049-059>061-072>074-084-300100-
   CENTRAL IOWA

CITY           SKY/WX    TMP DP  RH WIND       PRES   REMARKS
AMES           CLOUDY    72  69  90 S6        29.77F
6HR MIN TEMP:  71; 6HR MAX TEMP:  84; 6HR PCP:  0.04;

ANKENY *       MOCLDY    72  70  94 CALM      29.77S
CHARITON *     PTCLDY    70  68  94 S7        29.80S
DES MOINES     CLOUDY    72  68  87 SW6       29.77F
6HR MIN TEMP:  72; 6HR MAX TEMP:  85; 6HR PCP:  0.09;

GRINNELL*      CLOUDY    70  66  88 S3        29.79F
KNOXVILLE *    CLOUDY    70  66  88 S6        29.78S
MARSHALLTOWN   CLOUDY    69  68  96 S5        29.77F
6HR MIN TEMP:  69; 6HR MAX TEMP:  85; 6HR PCP:  0.25;

PELLA *        CLOUDY    70  68  94 S5        29.80S
PERRY *        RAIN      72  70  94 S3        29.78R
$$

IAZ004>006-015-016-023>025-035-036-300100-
   NORTH CENTRAL IOWA

CITY           SKY/WX    TMP DP  RH WIND       PRES   REMARKS
ALGONA *       MOCLDY    73  70  88 CALM      29.77F
CLARION *      CLOUDY    70  66  88 S22G31    29.78R
ESTHERVILLE    CLOUDY    71  67  87 N3        29.77F
6HR MIN TEMP:  70; 6HR MAX TEMP:  74; 6HR PCP: TRACE;

FORT DODGE *   CLOUDY    75  70  83 S6        29.78R
MASON CITY     CLOUDY    72  65  78 NW3       29.79R
6HR MIN TEMP:  72; 6HR MAX TEMP:  83;

FOREST CITY *  CLOUDY    72  68  88 CALM      29.78S
IOWA FALLS *     N/A     71  68  90 S7        29.79S
$$

IAZ007>011-017>019-026>030-037>042-050>054-066-300100-
   NORTHEAST IOWA

CITY           SKY/WX    TMP DP  RH WIND       PRES   REMARKS
CEDAR RAPIDS   CLOUDY    69  69 100 W5        29.79F
6HR MIN TEMP:  69; 6HR MAX TEMP:  86; 6HR PCP:  0.05;

CHARLES CITY * RAIN      70  68  94 S13G24    29.79R
CLINTON *      MOCLDY    81  72  74 SE8       29.84S HX  84
DECORAH *      PTCLDY    73  64  73 CALM      29.78S
DUBUQUE        MOCLDY    78  71  79 S9        29.81S HX  80
6HR MIN TEMP:  78; 6HR MAX TEMP:  85;

MONTICELLO *   HVY RAIN  73  70  88 SE5G20    29.79F
OELWEIN *      CLOUDY    68  66  94 S10       29.80F
WATERLOO       CLOUDY    70  66  87 S3        29.76S
6HR MIN TEMP:  70; 6HR MAX TEMP:  88; 6HR PCP:  0.05;

$$

IAZ064-065-067-068-078-300100-
   EAST CENTRAL IOWA

CITY           SKY/WX    TMP DP  RH WIND       PRES   REMARKS
DAVENPORT      CLOUDY    80  70  71 S7        29.82S HX  83
6HR MIN TEMP:  80; 6HR MAX TEMP:  86;

IOWA CITY      CLOUDY    72  68  87 W8        29.81S
6HR MIN TEMP:  72; 6HR MAX TEMP:  87; 6HR PCP: TRACE;

MT. PLEASANT * CLOUDY    73  69  88 S5        29.83R
MUSCATINE *    PTCLDY    81  70  69 S8G15     29.80F HX  84
QUAD CITIES    CLOUDY    80  71  74 SE6       29.81S HX  84
6HR MIN TEMP:  80; 6HR MAX TEMP:  87;

$$

IAZ062-063-075>077-085>089-095>099-300100-
   SOUTHEAST IOWA

CITY           SKY/WX    TMP DP  RH WIND       PRES   REMARKS
BURLINGTON     CLOUDY    72  70  93 S6        29.83S
6HR MIN TEMP:  72; 6HR MAX TEMP:  88; 6HR PCP:  0.32;

FAIRFIELD *    CLOUDY    73  70  88 SE7       29.80F
FORT MADISON * CLOUDY    73  72  94 SE5       29.84S
KEOKUK *       MOCLDY    75  72  88 S5        29.82S
OSKALOOSA *    HVY RAIN  70  69  96 SE7       29.80S
CENTERVILLE *  PTCLDY    73  73 100 S3        29.82F
WASHINGTON *   CLOUDY    73  72  94 S6        29.80F
$$

ABBREVIATIONS USED IN REMARKS
   TC - TEMPERATURES IN CELSIUS
  WCI - WIND CHILL INDEX
   HX - HEAT INDEX
  VSB - VISIBILITY
$$



USA.gov is the U.S. government's official web portal to all federal, state and local government web resources and services.